Regional Weather Roundup
Issued by NWS

Home | Current Version | Previous Version | Graphics & Text | Print | Product List | Glossary Off
Versions: 1 2 3 4 5 6 7 8 9 10 11 12 13 14 15 16 17 18 19 20 21 22 23 24 25 26 27 28 29 30 31 32 33 34 35 36 37 38 39 40 41 42 43 44 45 46 47 48 49 50

000
ASUS43 KDMX 281006
RWRIA

WEATHER ROUNDUP FOR IOWA
NATIONAL WEATHER SERVICE DES MOINES IA
500 AM CDT FRI JUL 28 2017

NOTE: "FAIR" INDICATES FEW OR NO CLOUDS BELOW 12,000 FEET WITH NO
SIGNIFICANT WEATHER AND/OR OBSTRUCTIONS TO VISIBILITY.

* - THESE STATIONS ARE NOT NWS STATIONS...THUS NOT UNDER NWS
QUALITY CONTROL.  THEY ALSO DO NOT REPORT WEATHER SUCH
AS PRECIPITATION OR FOG.

IAZ001>003-012>014-020>022-031>034-043>046-281100-
   NORTHWEST IOWA

CITY           SKY/WX    TMP DP  RH WIND       PRES   REMARKS
CARROLL *      PTCLDY    63  63 100 NW3       30.03S
DENISON *      CLOUDY    63  63 100 CALM      30.06R FOG
ORANGE CITY *  CLEAR     66  63  88 NE5       30.06S
SHELDON *      CLEAR     55  54  94 CALM      30.05F
SIOUX CITY     CLOUDY    63  63 100 CALM      30.04S
SPENCER        CLEAR     57  56  96 NW5       30.07R
STORM LAKE *   CLEAR     64  63  94 NE7       30.06S
$$

IAZ055>058-069>071-079>083-090>094-281100-
   SOUTHWEST IOWA

CITY           SKY/WX    TMP DP  RH WIND       PRES   REMARKS
ATLANTIC *     PTCLDY    61  61 100 N3        30.03R
AUDUBON *      PTCLDY    61  59  94 CALM      30.05R
CLARINDA *     CLEAR     63  63 100 N5        30.03R
COUNCIL BLFS * CLEAR     63  63 100 N5        30.03R
CRESTON *      CLEAR     63  61  94 NE8       30.02F
HARLAN  *      CLOUDY    63  63 100 CALM      30.06S
LAMONI         CLEAR     65  62  90 N5        30.00S
RED OAK *      CLEAR     63  63 100 CALM      30.01S
SHENANDOAH *   CLEAR     63  63 100 NE3       30.01S
$$

IAZ047>049-059>061-072>074-084-281100-
   CENTRAL IOWA

CITY           SKY/WX    TMP DP  RH WIND       PRES   REMARKS
AMES           CLEAR     64  64 100 N5        30.02S
ANKENY *       CLEAR     63  61  94 N6        30.02S
BOONE *        CLEAR     64  63  94 NE3       30.02S
CHARITON *     CLEAR     63  61  94 N6        30.00R
DES MOINES     CLEAR     67  63  87 CALM      30.00S
GRINNELL*      CLEAR     64  61  89 NE7       30.03R
KNOXVILLE *    CLEAR     66  61  82 N5        29.99S
MARSHALLTOWN   CLEAR     62  61  96 NE3       30.01R
NEWTON *       CLEAR     64  61  88 NE7       30.02R
PELLA *        CLEAR     63  59  88 CALM      30.01S
PERRY *          N/A     62  62  98 N3        30.02S
$$

IAZ004>006-015-016-023>025-035-036-281100-
   NORTH CENTRAL IOWA

CITY           SKY/WX    TMP DP  RH WIND       PRES   REMARKS
ALGONA *       CLEAR     63  63 100 CALM      30.05F
ESTHERVILLE    PTCLDY    58  58 100 NW6       30.06S
FORT DODGE *   CLEAR     63  61  94 CALM      30.05R
MASON CITY     CLEAR     60  58  92 N6        30.06S
FOREST CITY *    N/A     61  59  94 CALM      30.05S
WEBSTER CITY * CLEAR     61  59  94 N3        30.02R
IOWA FALLS *     N/A     64  61  91 CALM      30.05R
$$

IAZ007>011-017>019-026>030-037>042-050>054-066-281100-
   NORTHEAST IOWA

CITY           SKY/WX    TMP DP  RH WIND       PRES   REMARKS
CEDAR RAPIDS   CLEAR     64  61  88 NE6       30.00
CHARLES CITY * CLEAR     63  63 100 N6        30.04S
DECORAH *      CLEAR     63  61  94 CALM      30.03F
DUBUQUE          N/A    N/A N/A N/A MISG      30.03R
MONTICELLO *   CLEAR     61  59  94 CALM      30.01S
WATERLOO       CLEAR     62  61  96 CALM      30.01S
$$

IAZ064-065-067-068-078-281100-
   EAST CENTRAL IOWA

CITY           SKY/WX    TMP DP  RH WIND       PRES   REMARKS
DAVENPORT      CLEAR     61  57  87 N7        30.01R
IOWA CITY      CLEAR     67  60  78 NE5       30.01R
MT. PLEASANT * CLEAR     63  63 100 N6        29.98S
MUSCATINE *    CLEAR     64  59  82 N6        29.99R
QUAD CITIES    CLEAR     64  57  78 N6        29.98R
$$

IAZ062-063-075>077-085>089-095>099-281100-
   SOUTHEAST IOWA

CITY           SKY/WX    TMP DP  RH WIND       PRES   REMARKS
BURLINGTON     CLEAR     66  60  81 NE9       29.97R
FAIRFIELD *    CLEAR     61  59  94 NE7       29.99R
FORT MADISON * CLEAR     64  61  88 N5        29.98R
KEOKUK *       CLEAR     68  59  73 N6        29.96R
OSKALOOSA *      N/A     61  59  94 NE6       30.00S
CENTERVILLE *    N/A     63  63 100 CALM      30.01R
OTTUMWA        CLEAR     65  62  90 NE5       29.98F
$$

ABBREVIATIONS USED IN REMARKS
   TC - TEMPERATURES IN CELSIUS
  WCI - WIND CHILL INDEX
   HX - HEAT INDEX
  VSB - VISIBILITY
$$





USA.gov is the U.S. government's official web portal to all federal, state and local government web resources and services.